GFSNGP_sfc_dewp_000.txt.gz
Dewpoint
28 30 28 26 25 26 24 27 25 26 27 34 35 36 37 37 36 35 34 34 33 32 29 22 22 23 23 25 26 26 25 25 32 36 34 33 34 34 36 36 34 24 22 23
27 33 33 27 27 28 27 25 25 32 33 36 36 38 37 36 34 34 34 33 32 30 22 21 22 21 22 23 25 27 25 30 35 36 36 35 34 35 35 35 24 19 21 23
24 32 30 22 26 29 28 32 27 25 34 36 36 37 35 34 34 33 32 32 31 25 20 21 20 21 19 21 24 25 26 32 33 35 35 35 36 36 35 25 17 19 21 23
20 21 11 29 31 31 36 36 36 35 35 35 36 37 35 33 32 32 32 30 27 17 17 19 19 18 20 21 22 25 31 31 33 33 33 34 35 33 31 24 20 21 23 24
18 21 19 25 30 29 27 35 38 37 37 36 37 34 33 34 33 31 29 25 21 18 18 18 18 19 20 21 22 24 30 31 32 33 32 33 33 34 34 26 19 24 25 24
27 12 8 23 33 34 32 27 39 38 37 36 34 28 32 36 35 31 23 21 18 18 17 17 17 19 21 22 24 25 31 32 32 33 33 33 33 32 30 20 24 24 24 24
23 15 23 28 33 34 26 25 40 39 38 37 34 33 34 38 35 23 21 19 20 19 17 18 20 22 23 23 24 26 30 31 32 33 32 32 32 26 20 24 24 24 23 23
23 18 20 33 34 28 32 39 40 40 39 38 37 37 37 35 25 23 18 18 19 20 20 22 23 24 23 23 25 27 29 29 29 29 27 24 22 22 23 23 22 21 14 17
30 29 32 34 35 38 42 41 41 39 39 39 37 37 30 25 22 20 18 18 19 19 21 23 24 24 23 24 27 28 28 27 27 26 26 25 22 20 21 21 19 20 21 13
32 35 36 37 43 44 43 42 41 40 39 39 36 30 24 22 21 19 18 18 19 21 22 24 25 25 26 27 27 27 27 27 26 26 27 25 22 22 21 19 17 21 19 16
33 35 39 41 42 43 42 42 41 41 40 39 27 22 21 20 20 20 20 21 23 24 25 25 26 28 29 29 29 26 27 27 26 26 25 25 21 22 23 20 20 18 17 16
31 35 36 38 43 42 41 40 41 40 26 22 22 20 21 21 22 22 23 24 23 25 26 27 28 27 29 30 30 29 27 27 27 25 23 25 25 25 26 25 23 24 22 15
37 40 42 42 42 41 40 40 38 29 22 21 22 22 23 23 24 27 24 24 25 26 27 29 27 28 29 30 31 32 32 31 28 25 24 22 21 21 16 22 27 27 23 22
42 43 41 42 41 41 32 29 26 23 24 24 23 25 25 24 26 26 25 25 27 27 29 28 27 28 30 32 30 28 29 27 27 23 21 21 16 23 25 18 14 16 22 24
44 41 41 41 38 31 25 23 23 23 24 23 25 24 24 26 27 27 27 27 28 28 28 28 28 29 30 32 30 29 30 26 22 17 20 20 18 20 22 22 19 18 16 22
40 38 40 38 27 23 23 25 24 25 24 23 23 24 25 29 28 28 28 29 26 27 28 27 27 29 31 33 30 28 29 25 17 18 23 24 20 19 22 22 20 18 16 14
36 35 31 28 26 26 25 26 26 25 25 24 23 25 27 26 24 27 27 26 25 28 28 29 27 30 31 33 31 28 28 24 24 25 26 26 20 20 22 21 18 18 18 11
32 32 30 29 27 29 29 29 27 25 25 25 21 17 17 17 21 23 24 24 25 28 28 27 29 30 32 33 31 28 27 25 23 24 19 15 18 20 20 18 17 19 21 19
30 30 29 27 27 27 26 26 26 26 24 22 20 22 21 22 22 24 23 21 25 25 26 28 29 30 32 33 29 22 16 13 15 18 22 16 11 21 25 20 16 20 18 18
25 27 27 25 27 24 24 24 23 27 28 24 17 15 22 23 21 22 23 23 26 26 25 27 30 30 31 31 30 27 16 12 15 17 11 11 8 18 24 22 21 15 12 14
27 27 26 26 26 24 23 23 20 22 25 24 29 29 28 29 27 21 21 25 26 24 26 31 28 31 33 32 31 26 20 20 15 17 20 18 10 12 23 24 20 17 12 12
28 27 25 24 22 25 24 23 28 30 30 29 30 29 28 29 29 19 21 26 29 25 30 30 30 31 32 32 31 30 29 27 23 21 21 16 14 15 18 23 21 24 22 18
28 28 28 25 24 26 27 27 26 26 26 27 29 26 25 30 30 28 28 27 27 30 31 31 31 32 33 32 32 30 29 28 26 25 23 22 19 17 20 23 25 24 25 25
30 30 28 26 23 25 27 29 27 27 25 27 26 27 31 31 31 27 28 26 26 31 32 32 32 32 32 32 32 32 30 29 28 27 25 23 24 22 21 23 23 24 22 22
27 28 26 24 27 28 29 30 28 28 27 27 27 31 31 31 29 26 26 29 31 31 32 32 32 32 32 32 32 30 29 29 29 28 27 27 27 27 26 25 25 26 27 25
29 29 29 29 29 29 29 27 25 24 27 25 29 30 30 29 26 30 31 30 31 31 30 31 32 33 32 32 32 32 30 29 29 29 29 29 28 28 27 26 24 25 27 27
28 25 27 28 29 28 24 29 30 29 24 24 25 23 25 29 31 30 29 30 31 30 30 29 29 29 31 32 31 31 32 32 31 30 30 30 29 29 28 26 25 25 26 27

GFSNGP_sfc_dewp_003.txt.gz
Dewpoint
29 30 27 25 23 28 27 27 24 25 26 30 34 35 36 36 35 34 33 32 31 29 23 20 22 22 21 23 24 25 24 28 31 33 33 33 32 32 32 33 32 32 27 22
28 32 31 25 24 25 25 25 28 30 32 35 36 37 36 35 34 32 31 31 30 26 19 19 20 19 20 22 23 26 25 29 32 32 33 34 34 34 35 34 33 23 17 22
17 29 27 16 24 27 26 31 29 29 32 35 36 36 35 34 34 32 31 30 28 22 16 18 20 20 20 21 23 25 26 30 32 33 33 33 34 35 33 32 21 19 21 23
19 19 7 20 29 30 30 35 35 34 35 35 36 36 35 34 32 31 29 29 27 17 13 18 19 19 20 20 22 24 26 31 31 32 32 32 34 33 32 33 30 19 24 24
17 18 17 19 31 34 30 30 36 35 34 35 36 34 33 34 32 31 30 28 23 15 12 15 17 18 19 21 22 24 26 30 31 32 32 32 32 32 31 30 22 24 24 24
24 9 5 17 32 33 31 26 38 36 36 35 34 28 32 34 32 32 30 17 16 15 16 16 17 19 20 22 23 24 26 29 31 32 32 32 32 31 30 19 23 22 22 21
17 12 21 25 32 33 25 24 39 38 37 36 34 34 32 36 36 29 17 17 19 19 19 19 21 23 23 23 24 25 27 29 29 30 30 29 29 25 19 24 23 22 23 20
25 18 18 31 32 29 32 36 39 39 38 37 36 36 37 36 22 18 18 18 19 20 21 22 23 24 24 23 24 25 27 28 28 28 26 24 22 20 23 22 20 20 13 16
28 27 31 32 34 36 38 39 39 39 39 38 37 37 36 22 19 18 17 17 19 20 22 23 24 25 24 25 26 27 27 27 26 25 25 24 21 20 20 20 18 19 19 13
30 32 33 34 37 42 42 40 41 40 39 39 37 33 22 21 20 19 18 19 20 21 22 24 25 26 28 28 28 28 27 27 26 26 26 25 21 21 20 19 18 20 18 16
32 34 37 38 41 42 42 41 41 40 39 38 33 21 21 21 20 20 20 21 22 22 24 25 26 28 27 28 30 28 27 27 26 27 25 21 20 21 22 19 20 19 17 16
30 33 36 34 39 42 41 41 41 40 33 25 22 21 21 21 22 21 22 22 22 24 25 26 28 27 27 29 30 29 30 30 28 31 26 23 23 23 25 24 25 25 23 15
35 36 37 39 41 42 41 41 41 28 22 21 22 22 23 23 23 26 24 23 24 26 27 28 28 27 28 28 29 30 28 28 31 30 27 24 23 21 15 20 24 26 25 23
40 42 39 40 40 41 36 32 28 23 24 24 25 25 24 23 25 25 25 26 27 27 28 28 27 27 29 29 31 30 29 28 27 27 27 27 25 23 17 15 12 14 20 25
41 42 40 41 39 29 24 23 23 24 24 25 26 24 23 24 25 26 27 27 28 28 28 27 26 26 28 30 31 31 28 27 26 20 21 25 25 20 19 16 14 14 13 19
41 39 40 35 27 24 25 27 26 25 25 25 24 24 24 27 27 27 27 28 25 26 27 24 27 27 29 31 32 32 29 28 24 21 22 24 22 21 20 17 15 14 12 12
35 32 28 28 31 34 33 31 27 28 28 24 22 24 26 24 24 26 26 25 20 21 23 23 25 28 29 31 32 32 30 28 25 26 22 20 18 18 21 16 16 11 13 9
33 33 34 35 34 31 29 30 30 27 25 24 22 20 18 17 21 22 22 22 19 22 24 25 25 28 30 31 33 32 29 26 26 26 25 15 16 15 14 18 18 12 13 12
34 33 32 31 32 33 32 28 27 26 23 21 20 23 21 20 22 22 21 17 20 22 25 23 26 29 30 28 31 31 28 25 21 18 18 15 9 11 11 18 21 13 17 14
30 31 32 27 26 26 26 27 26 27 27 25 19 16 23 23 17 18 17 22 25 27 26 25 27 30 28 29 31 30 30 26 21 19 8 10 8 10 12 16 19 18 15 12
30 27 27 27 27 26 26 25 23 25 26 19 24 20 25 25 27 28 25 25 26 24 25 25 30 30 30 31 32 32 30 26 21 22 22 19 17 15 16 18 21 21 19 14
27 27 24 25 24 26 26 24 27 27 25 21 23 23 23 27 21 29 27 26 27 23 25 26 28 31 30 31 32 32 31 28 28 28 25 24 22 22 21 21 20 20 22 20
28 29 28 25 25 27 27 25 24 24 24 24 23 23 23 26 27 29 28 26 25 23 25 26 27 28 30 32 32 32 32 31 29 28 27 27 25 23 23 22 22 23 25 25
30 29 28 26 23 26 26 28 26 26 23 24 24 23 22 30 32 31 31 27 22 23 28 31 31 30 32 32 32 32 31 30 30 30 30 29 28 27 25 25 24 24 23 21
27 28 26 24 26 28 28 29 27 27 25 26 28 28 29 32 31 28 24 27 29 29 30 30 29 28 30 32 32 31 31 30 30 29 29 28 27 27 27 27 27 26 26 25
29 28 27 29 28 28 28 26 24 28 29 28 28 25 24 23 25 25 28 29 28 27 29 29 30 27 23 22 22 24 26 28 30 30 30 29 29 28 28 28 28 28 27 27
27 24 27 27 28 28 27 29 29 30 30 28 27 29 28 28 26 26 29 24 23 26 24 20 18 14 14 12 11 12 13 14 15 15 18 23 28 29 28 28 29 29 28 28

GFSNGP_sfc_dewp_006.txt.gz
Dewpoint
29 30 27 23 22 28 24 24 22 22 23 24 33 34 36 36 35 34 33 32 32 29 23 22 23 23 22 23 24 24 24 24 28 31 31 31 32 33 33 33 34 32 32 26
28 31 29 25 24 24 26 26 27 27 26 34 35 36 36 35 35 34 32 31 31 28 22 21 21 21 20 21 23 25 25 25 29 31 32 32 33 33 33 36 33 25 19 22
13 27 22 17 22 24 25 26 27 26 27 35 35 36 36 35 34 33 31 30 30 26 22 19 20 21 20 20 22 24 25 26 30 31 31 31 32 32 33 31 28 25 23 24
19 18 7 19 26 28 27 30 33 32 34 35 36 36 36 35 35 34 31 29 29 28 21 16 19 19 21 20 21 23 24 26 30 30 30 31 31 31 31 31 31 22 24 24
17 17 16 15 32 31 29 26 35 33 35 35 35 35 34 35 34 33 31 29 29 26 15 14 16 18 18 20 21 22 24 25 28 30 30 30 31 30 30 30 27 24 24 23
16 9 5 17 26 32 30 26 36 35 35 35 34 29 33 35 34 32 30 25 18 15 15 15 17 20 21 22 23 24 25 26 28 29 29 30 30 29 29 22 22 22 22 20
15 12 19 22 31 32 24 25 37 36 35 35 33 35 34 35 33 31 23 17 19 19 18 19 21 23 22 23 24 25 26 26 28 28 28 28 26 25 21 22 21 22 22 20
21 14 14 28 31 28 32 33 37 37 37 36 35 34 35 35 27 19 18 18 19 19 20 22 23 24 24 24 25 26 27 27 27 27 26 25 24 20 22 22 20 20 13 17
24 24 28 31 33 34 35 34 37 38 38 38 36 36 36 26 20 19 17 18 19 20 21 22 23 25 25 26 27 27 28 28 27 27 25 25 23 20 20 19 17 17 19 14
29 29 32 33 34 37 39 37 39 40 39 38 37 37 29 21 20 19 18 19 20 20 20 22 25 26 28 27 27 28 29 27 27 26 26 26 22 21 20 18 17 19 19 17
31 33 34 35 39 38 40 41 40 40 40 39 37 28 22 21 21 20 20 21 21 21 22 24 26 27 28 27 28 28 30 29 28 26 26 25 21 21 22 20 20 19 18 17
29 32 32 32 34 40 40 41 41 40 38 31 30 22 22 22 23 22 22 22 21 23 25 26 27 28 27 28 28 28 29 27 28 28 31 27 22 23 25 25 24 26 25 16
32 35 35 36 40 40 41 41 41 36 27 23 22 22 23 26 25 25 23 23 23 24 26 27 27 28 28 28 28 29 30 30 28 30 30 27 24 22 18 20 24 26 27 27
40 40 37 39 39 40 40 36 28 24 24 24 26 27 28 24 24 25 24 25 26 27 28 28 27 26 27 28 28 30 30 29 28 28 27 28 26 24 21 17 13 15 20 25
39 40 39 40 32 26 26 25 25 26 28 29 31 31 27 23 24 25 26 27 27 28 28 27 27 26 27 27 28 30 31 30 28 26 19 19 22 20 21 18 18 15 12 18
39 39 36 28 24 26 27 30 31 31 32 33 33 28 24 24 26 27 27 27 26 26 27 22 22 26 27 28 29 31 32 30 28 26 24 20 17 22 21 20 19 18 13 14
35 30 29 31 32 33 33 32 32 33 35 33 27 25 25 26 25 26 26 25 22 21 22 22 24 26 27 29 30 31 32 31 28 24 24 25 24 20 19 17 20 18 14 9
34 34 35 35 35 34 33 33 33 33 31 27 27 24 23 22 24 23 22 20 17 21 23 24 25 26 28 30 30 29 31 30 28 27 26 25 25 23 18 16 17 17 18 9
35 35 36 36 36 35 34 31 28 27 26 25 24 24 24 23 20 23 19 16 17 19 25 24 26 25 29 29 29 29 30 30 28 25 26 22 13 16 16 13 15 17 18 17
35 35 33 26 26 27 27 27 27 28 27 25 23 22 23 23 17 15 17 24 25 25 25 25 24 24 27 29 29 30 31 30 29 25 23 17 14 14 15 13 16 19 17 18
28 27 27 27 27 27 26 26 25 26 26 22 24 24 22 23 20 26 27 26 27 23 25 23 24 26 28 30 30 31 31 31 29 26 23 22 23 22 20 20 20 21 21 21
27 27 26 25 24 26 26 24 26 26 25 22 20 20 19 23 23 21 26 29 30 25 23 22 24 24 27 30 30 31 31 31 30 29 26 26 26 26 25 24 24 25 24 22
29 28 28 25 24 26 25 24 22 21 21 22 22 23 21 25 22 25 29 27 27 23 22 24 27 28 29 29 30 32 31 31 31 30 28 28 28 28 27 27 27 26 26 25
29 28 27 24 23 25 27 28 27 25 20 23 22 21 21 23 25 26 28 28 22 27 29 29 29 29 24 29 30 31 30 30 29 28 28 27 28 28 28 27 27 26 26 27
26 27 25 26 27 27 27 28 26 26 27 28 29 29 26 24 30 30 31 28 28 29 29 25 26 25 22 19 15 20 20 23 23 22 24 26 28 28 27 26 26 26 26 27
28 27 26 27 27 26 26 26 26 26 27 27 28 29 28 26 24 25 28 28 27 28 27 26 17 14 11 10 7 8 10 11 9 9 9 11 12 15 19 22 27 27 27 27
26 25 24 23 23 22 22 21 22 22 24 26 27 26 26 27 29 30 31 30 29 26 20 17 12 11 10 9 8 6 6 5 5 6 6 5 6 6 7 8 11 17 27 28

GFSNGP_sfc_dewp_009.txt.gz
Dewpoint
29 29 28 23 27 27 23 25 27 24 24 24 30 34 36 36 36 34 33 33 32 30 24 23 25 27 27 26 26 26 25 24 27 31 32 32 33 33 34 36 36 34 31 25
30 30 28 26 24 26 28 27 25 26 27 29 34 35 36 36 35 34 34 33 32 30 25 24 24 28 25 25 25 25 25 27 27 30 32 32 32 33 34 35 35 29 28 26
22 26 23 24 26 25 27 27 29 28 28 35 35 35 36 36 35 35 35 34 32 32 28 25 25 27 24 23 24 24 25 26 27 29 31 32 31 30 32 33 34 34 28 27
27 24 21 22 28 26 26 27 28 30 31 34 35 36 36 37 36 36 35 33 32 31 29 27 23 22 24 21 21 23 23 25 27 28 29 30 30 29 32 33 32 33 28 26
28 22 19 18 24 31 31 25 32 31 33 35 36 37 37 37 37 38 37 34 31 31 29 21 18 20 20 21 22 23 24 25 26 28 29 29 29 30 30 30 31 29 26 24
24 24 20 23 22 35 31 27 32 35 36 36 36 37 35 38 38 37 35 32 29 23 16 17 19 22 23 23 23 23 26 27 27 28 29 29 29 28 29 28 21 24 22 19
20 28 25 24 30 32 27 28 35 37 37 37 36 39 36 37 36 35 30 20 20 19 19 21 24 24 22 24 24 26 27 27 27 29 29 29 28 26 25 23 24 26 23 21
23 24 23 27 32 33 36 36 36 38 38 38 38 36 35 35 30 24 19 19 20 21 22 24 24 24 22 23 26 27 27 28 29 28 28 27 27 26 23 23 24 25 26 24
28 30 32 31 37 36 36 35 37 38 38 39 38 35 36 31 22 20 18 18 19 20 22 22 23 24 23 25 28 28 28 29 29 29 27 26 26 25 22 22 23 24 22 24
33 31 31 33 34 35 36 37 38 39 39 39 38 37 33 22 20 19 18 19 20 20 18 20 24 25 27 29 28 28 28 29 30 29 29 27 25 22 22 24 24 22 24 23
33 34 34 34 37 39 38 40 41 41 41 40 39 36 27 22 21 19 24 27 20 20 21 22 25 26 28 28 28 28 29 27 27 28 28 29 28 23 22 22 24 24 24 24
35 34 35 35 34 38 40 40 42 42 40 37 35 29 23 22 24 31 30 22 20 22 23 25 26 27 28 28 29 30 29 28 29 29 28 29 30 26 26 27 25 26 26 26
34 36 36 37 37 40 41 42 42 39 32 27 25 24 25 31 35 32 23 22 22 23 25 27 27 27 28 28 29 29 29 30 30 30 29 29 30 30 27 27 25 27 28 29
39 40 40 40 40 39 33 27 27 26 27 30 33 35 36 35 30 25 24 24 25 26 27 28 28 27 28 28 29 29 30 31 31 31 31 31 31 30 30 29 29 29 27 24
41 41 40 31 28 26 27 29 31 33 35 36 36 36 35 30 26 25 27 27 28 27 28 28 27 26 28 28 27 29 30 31 33 33 32 30 28 28 29 29 28 28 27 24
33 30 28 27 28 30 32 33 34 34 35 36 35 35 33 28 25 27 29 29 28 28 29 28 27 27 28 28 28 30 31 32 31 33 32 31 28 28 28 29 29 29 27 27
34 30 32 32 32 32 33 35 35 35 35 36 35 31 27 28 29 29 28 28 29 28 28 27 28 28 28 29 30 30 31 31 30 32 31 30 31 29 28 29 28 28 28 31
35 35 36 36 34 34 34 35 35 35 35 32 30 29 28 27 29 29 28 26 25 25 28 29 29 28 28 29 31 31 30 30 31 31 31 31 30 30 30 29 27 27 27 30
37 36 36 35 35 35 35 35 33 30 29 29 28 29 28 28 27 27 27 25 25 26 28 30 28 29 29 29 30 31 31 31 31 31 31 30 30 29 30 29 28 28 27 27
35 35 31 26 27 29 29 30 30 30 29 29 27 28 28 28 26 25 26 26 27 29 30 29 29 29 30 29 29 31 33 32 32 31 31 30 29 29 29 26 27 28 28 28
26 28 29 29 28 29 29 28 28 29 28 26 27 28 27 27 27 25 28 29 31 30 29 28 28 29 29 29 30 33 32 32 32 30 30 31 29 28 29 29 28 28 28 28
29 29 27 26 25 28 27 28 28 27 27 27 25 23 23 26 27 27 26 29 32 29 31 31 30 29 29 29 31 32 30 31 32 32 32 32 31 30 30 31 30 31 31 31
30 29 29 27 27 28 28 28 26 26 25 26 26 27 28 28 29 28 30 31 31 31 30 32 30 29 29 31 32 32 32 31 32 32 32 32 31 31 31 31 31 31 31 31
29 29 28 27 26 27 26 27 27 28 28 28 29 29 28 27 28 30 31 30 30 30 31 32 32 31 29 31 28 25 24 25 24 23 23 22 25 27 29 30 30 31 30 30
28 28 27 26 25 24 23 22 23 24 24 24 25 26 25 28 28 28 29 29 30 31 30 31 27 21 23 22 20 18 18 17 16 16 15 16 16 16 17 18 18 19 21 28
25 24 24 23 22 19 18 18 18 20 21 21 23 26 26 26 26 26 27 27 29 30 30 22 20 18 17 16 15 13 13 12 12 12 11 11 11 11 11 11 12 13 14 16
22 19 19 19 16 15 14 14 15 16 18 19 18 20 20 22 23 23 23 26 29 25 19 17 15 13 13 12 11 11 10 10 8 7 8 7 7 8 8 8 9 10 12 13

GFSNGP_sfc_dewp_015.txt.gz
Dewpoint
26 26 23 22 20 22 20 20 24 19 9 9 12 17 21 25 30 32 37 40 41 39 38 37 35 33 32 35 36 28 24 23 26 28 29 28 28 29 29 30 28 28 28 30
33 28 26 24 21 18 19 20 17 15 15 15 21 20 24 26 31 32 36 38 39 38 36 35 33 31 32 35 32 28 27 26 26 27 27 27 28 30 29 29 27 27 27 28
24 29 29 32 30 23 20 19 21 22 21 22 25 25 26 27 31 33 35 37 38 37 37 35 34 32 33 31 29 27 26 25 25 26 25 26 25 24 25 28 28 28 27 27
31 31 28 17 22 19 22 20 19 19 20 20 24 29 30 31 31 34 35 36 37 37 37 37 34 30 32 29 26 26 24 23 25 23 21 22 23 23 26 28 28 27 26 28
37 24 20 16 14 19 21 18 17 22 19 20 28 33 32 33 34 35 36 37 37 38 38 37 33 30 28 26 23 22 24 23 17 20 22 22 22 24 27 28 28 27 26 25
31 34 32 26 24 30 28 19 24 24 25 25 32 35 26 34 33 35 35 37 37 38 38 36 32 28 26 23 28 23 21 18 20 20 20 21 23 26 27 28 27 25 24 25
33 36 31 23 24 30 23 28 31 32 28 30 31 31 38 38 36 35 36 37 39 39 36 33 27 25 29 25 24 18 20 22 20 20 22 25 26 26 27 28 28 30 28 28
36 36 31 24 29 29 37 34 34 33 33 37 37 37 37 38 37 37 37 37 37 34 29 26 27 29 27 24 20 23 23 23 22 24 25 25 28 28 28 28 29 29 33 30
31 32 33 30 29 31 35 36 35 36 35 36 36 36 36 37 37 36 37 33 29 25 26 30 30 26 22 24 24 23 24 25 25 26 27 27 28 28 28 27 28 28 29 31
33 25 26 28 29 31 32 34 34 35 36 37 38 39 39 38 36 34 29 23 23 30 31 29 31 28 23 26 27 26 26 27 28 28 27 27 27 28 28 28 28 28 29 27
32 29 27 29 31 34 35 38 39 39 40 41 41 40 40 38 32 28 23 32 33 33 32 29 25 24 26 27 27 27 28 28 28 31 30 27 26 27 29 30 30 29 30 29
35 34 35 33 37 40 40 41 42 41 40 37 38 38 37 28 28 33 33 34 34 32 28 24 26 26 27 28 28 29 30 30 30 30 30 28 28 28 30 31 31 28 27 30
36 38 39 39 40 39 38 36 35 35 34 32 32 33 36 36 36 35 33 33 31 26 25 26 26 28 30 30 30 30 29 30 30 30 29 28 30 29 29 31 31 29 28 28
42 42 41 38 37 36 37 37 38 37 36 37 36 35 35 35 34 33 32 29 27 26 27 28 29 30 31 29 29 30 30 30 30 30 31 33 31 32 32 31 32 32 32 28
38 38 37 35 35 35 36 36 36 36 35 35 35 34 32 30 28 27 26 26 28 28 28 28 28 28 28 28 28 29 29 30 32 33 34 32 32 31 33 32 32 32 31 31
36 35 35 35 35 36 35 35 34 34 33 32 30 30 28 29 28 26 25 26 30 28 28 33 35 31 30 29 29 30 31 31 31 33 32 32 32 32 31 33 32 32 32 31
36 34 34 36 37 36 34 32 30 32 33 34 33 32 31 31 30 26 28 30 36 33 35 35 35 32 32 31 30 31 33 34 32 33 32 32 32 32 30 31 32 31 32 34
36 36 36 35 33 33 32 35 35 32 30 29 33 33 32 32 33 34 34 36 33 34 35 34 34 33 32 32 32 33 34 33 34 34 34 33 33 32 32 32 31 31 32 33
35 35 33 32 34 33 31 31 33 33 33 33 32 32 32 32 34 34 34 33 32 33 31 35 31 32 33 32 32 34 35 35 35 33 33 32 33 32 33 34 33 33 33 33
31 30 29 29 33 35 33 33 34 33 32 32 32 32 32 32 32 32 32 32 34 34 34 33 33 33 32 32 31 33 36 36 35 34 35 33 33 33 33 31 33 33 33 33
29 31 33 33 33 33 33 33 33 32 32 31 30 29 29 29 29 28 30 26 27 32 29 28 28 29 30 32 34 35 36 35 34 34 33 33 32 33 33 33 33 32 32 33
33 33 34 34 33 31 31 31 30 30 29 29 29 29 28 27 29 29 31 28 27 27 26 28 28 28 29 30 30 32 33 32 33 34 33 32 32 30 29 32 32 32 32 32
33 32 33 32 31 29 28 28 30 28 27 27 27 26 26 26 24 24 24 24 25 26 26 28 28 28 29 32 32 32 32 32 33 32 30 27 26 26 26 27 27 28 27 28
32 30 29 29 29 26 22 20 21 23 25 26 27 26 23 23 24 22 24 23 23 22 25 24 22 20 23 28 27 27 27 27 25 25 25 23 23 23 22 23 22 23 23 22
29 28 28 27 22 21 18 18 18 19 19 18 19 19 20 20 22 22 23 21 19 20 21 20 18 17 21 21 21 20 21 21 20 20 19 20 19 19 19 19 18 19 18 19
27 26 23 19 19 18 18 17 19 19 18 20 19 21 22 21 21 20 20 19 18 18 18 19 18 17 17 16 17 17 17 17 15 14 15 15 14 14 14 14 14 14 15 15
21 22 21 20 17 16 18 17 19 19 19 20 18 20 19 20 19 18 18 18 17 17 17 17 17 15 14 14 14 14 14 13 12 11 12 11 10 11 10 10 11 12 13 14

GFSNGP_sfc_dewp_018.txt.gz
Dewpoint
23 23 25 26 22 21 18 23 25 25 17 16 16 20 25 27 30 30 31 37 39 42 42 41 42 40 38 37 37 38 36 27 32 33 32 33 34 33 34 34 32 32 32 33
36 28 26 25 24 23 20 18 19 18 18 18 24 24 25 25 26 31 29 32 38 42 43 41 40 40 37 36 38 39 33 31 31 31 30 33 32 34 34 34 32 31 30 32
34 29 31 30 32 26 25 20 20 22 24 21 21 24 28 29 27 33 32 34 37 41 42 41 40 40 37 36 39 36 32 31 31 31 32 32 31 29 28 30 31 31 31 31
37 33 29 21 20 20 21 20 20 17 19 19 26 30 28 29 30 32 36 36 38 40 41 41 40 38 36 35 35 32 30 28 29 31 27 26 27 26 30 30 31 31 30 30
37 31 24 21 18 18 19 20 24 23 23 23 28 29 30 32 35 36 36 37 37 39 40 41 40 38 34 33 32 29 28 28 26 26 25 26 26 28 30 31 31 31 30 28
35 35 31 31 25 27 25 24 25 25 28 27 28 41 35 38 37 37 34 35 36 38 39 40 40 36 33 29 27 29 28 27 27 25 25 25 27 30 31 30 30 30 29 30
36 37 36 25 25 27 28 33 34 33 32 33 35 38 39 42 40 37 36 36 39 39 34 34 29 30 28 30 30 27 32 31 27 26 25 28 29 29 29 30 31 31 28 29
40 36 32 26 27 32 40 41 36 36 37 40 39 40 38 36 37 37 36 37 34 29 30 31 30 31 31 29 29 33 33 27 27 30 28 27 31 30 31 30 31 30 31 30
36 38 38 31 32 34 37 38 37 37 35 37 37 36 38 38 39 36 34 27 27 29 32 30 29 30 32 33 32 30 30 30 30 29 29 29 29 28 30 30 31 30 31 30
39 26 26 29 29 31 31 36 35 37 38 39 41 41 40 39 37 30 25 25 30 31 32 34 32 31 30 30 29 30 31 31 31 31 30 29 28 28 29 31 32 31 30 30
32 31 30 28 34 38 38 39 40 41 41 39 39 39 39 30 28 29 32 33 33 33 33 32 30 27 28 30 30 30 31 30 31 32 31 30 29 29 30 29 30 29 30 31
42 37 39 37 40 41 41 39 38 38 34 33 33 30 33 33 33 34 34 34 33 31 29 28 28 28 29 29 30 31 31 31 32 33 33 30 30 30 30 31 31 32 31 28
38 40 40 41 38 37 37 37 37 36 37 36 35 35 35 35 35 35 34 33 32 30 28 27 27 28 29 32 32 31 30 31 32 31 32 31 31 30 30 32 31 31 32 30
41 41 40 38 36 38 37 36 37 36 35 35 35 35 35 35 35 34 32 31 28 27 28 28 29 29 32 32 31 30 31 30 30 31 32 32 31 31 29 28 29 31 32 31
38 37 37 37 37 37 36 35 34 34 34 33 34 33 31 30 28 27 26 25 27 28 26 27 29 30 30 30 28 29 31 31 32 33 32 32 32 30 29 29 30 30 30 30
36 36 37 36 35 35 34 34 32 32 32 34 33 32 29 30 28 25 24 31 31 31 32 30 31 31 32 32 30 30 31 31 31 32 32 32 31 31 30 30 29 29 30 30
36 35 36 35 34 34 32 34 34 33 30 28 29 32 31 32 30 31 32 33 33 32 32 33 32 33 34 34 32 32 32 33 32 33 32 32 32 33 32 32 31 29 30 31
37 37 36 35 34 34 33 31 32 32 31 31 31 31 31 30 30 31 32 32 32 32 33 34 32 33 33 33 33 33 33 33 33 33 33 34 34 33 31 30 29 30 30 29
35 34 35 34 32 32 32 33 33 32 31 30 31 30 30 29 29 28 28 29 31 31 31 29 28 28 30 31 31 32 33 33 32 32 32 33 33 31 30 30 29 30 31 30
32 31 31 33 34 32 32 32 34 32 31 30 29 29 27 27 27 25 27 27 29 28 27 25 26 25 25 27 27 26 27 28 29 31 33 33 32 31 29 27 28 30 31 31
31 32 32 31 30 31 31 30 30 28 27 26 26 24 24 27 27 25 25 24 27 25 25 23 23 24 22 22 23 27 28 29 29 29 30 31 32 31 27 26 28 30 31 31
33 33 32 30 30 28 29 29 29 28 27 25 23 22 23 23 24 24 23 24 23 22 21 23 23 17 18 20 26 26 26 26 27 28 30 29 30 28 26 26 26 26 27 27
33 32 31 30 29 28 27 28 27 26 23 23 23 23 23 22 22 21 21 22 22 20 20 22 18 15 16 21 21 20 21 21 19 21 21 22 23 23 23 22 22 22 22 22
32 30 29 29 30 28 23 20 23 25 23 25 24 22 21 22 23 22 22 20 19 19 19 21 18 14 16 18 18 17 17 18 15 16 16 17 18 18 18 18 17 17 16 17
29 29 29 29 25 22 20 19 21 21 19 19 20 19 20 21 21 21 22 21 18 18 19 18 18 14 16 15 15 15 14 15 13 12 12 13 13 13 14 13 12 12 12 13
29 27 22 21 20 19 18 18 19 20 18 20 20 22 23 22 21 19 19 18 18 17 17 17 16 16 15 13 13 12 12 11 10 10 9 10 9 10 9 9 8 9 9 10
23 25 23 21 18 18 18 18 19 18 21 19 18 20 21 21 20 18 16 17 16 16 15 15 14 13 13 11 11 10 9 9 7 8 7 6 6 6 5 6 6 8 9 9

GFSNGP_sfc_dewp_021.txt.gz
Dewpoint
31 32 29 28 28 27 23 27 25 25 25 25 23 24 24 28 28 28 31 38 40 41 41 41 42 41 41 40 37 34 33 32 33 36 34 33 33 32 32 32 31 31 31 33
32 32 31 29 28 27 27 26 23 23 22 22 25 25 24 23 27 28 29 31 37 42 42 41 42 41 40 38 37 36 37 35 33 34 33 33 32 31 32 33 32 32 31 31
28 29 27 22 24 27 28 27 26 21 22 25 27 28 28 28 29 29 31 34 36 41 42 41 42 40 38 37 38 38 37 33 34 34 32 31 29 29 28 28 29 30 31 31
27 26 13 24 25 22 26 24 24 24 29 28 27 30 33 30 33 34 34 34 35 37 40 41 41 40 38 37 38 35 31 31 31 30 28 28 28 27 29 30 30 30 30 30
24 25 25 23 26 27 24 24 27 27 27 29 30 34 37 38 37 34 33 33 34 36 39 40 38 38 36 35 32 29 28 29 31 31 29 30 30 31 31 31 30 30 30 29
27 24 17 29 28 29 27 24 33 31 31 31 30 30 36 38 38 37 37 34 30 31 29 31 34 31 28 27 31 33 33 31 31 31 31 30 31 32 31 30 29 30 29 29
25 23 29 34 28 30 19 25 35 33 34 35 35 38 37 39 38 36 32 30 31 31 30 31 31 30 29 31 33 34 34 33 33 32 32 33 31 30 30 30 29 31 29 28
30 29 26 33 29 24 36 36 35 34 35 35 36 37 39 39 36 29 28 31 30 29 30 32 33 34 34 34 33 33 34 34 34 34 32 29 30 30 30 29 29 29 29 29
33 32 38 31 31 37 34 33 33 35 38 39 42 41 41 34 27 27 30 29 32 33 33 34 34 34 33 33 34 34 34 33 33 32 31 30 29 28 28 29 27 29 29 26
31 31 32 30 30 36 39 39 41 42 40 40 40 35 29 29 32 31 31 32 34 33 31 31 31 31 31 31 31 31 31 31 31 31 31 30 29 29 29 27 25 28 27 28
33 32 38 40 41 41 41 41 36 35 34 34 31 30 31 32 33 33 33 33 33 33 32 31 30 29 29 30 30 29 30 31 31 29 30 30 30 29 29 28 28 26 26 27
30 38 40 40 39 39 37 36 36 36 36 36 35 34 34 34 34 34 34 33 32 30 29 29 29 28 29 29 29 29 29 29 29 29 29 30 29 29 31 30 30 31 31 28
40 41 39 38 38 38 38 37 37 36 35 34 35 35 34 34 34 34 33 32 31 30 30 28 27 28 29 29 30 29 29 29 28 29 28 28 28 27 24 28 31 30 32 32
40 40 38 38 37 37 36 35 36 35 35 35 35 35 34 34 34 34 33 32 29 28 28 27 27 28 30 31 31 30 29 29 29 29 28 29 29 30 30 28 26 26 28 31
37 38 37 37 36 35 35 35 34 34 34 34 34 33 33 32 29 28 30 30 29 29 31 31 29 29 31 32 31 30 29 28 29 29 29 29 31 31 29 28 26 26 27 26
37 37 36 35 35 34 34 33 33 33 31 29 29 30 29 30 31 32 32 32 29 28 29 29 30 32 33 33 32 32 31 29 28 30 30 31 31 31 31 29 28 28 27 27
36 35 35 34 34 34 34 33 30 29 29 30 30 29 30 30 30 30 29 29 29 29 31 30 27 28 30 31 30 30 30 31 30 31 31 31 31 31 30 30 31 31 29 27
37 37 36 35 34 31 31 31 30 30 29 30 30 29 29 28 27 26 26 26 27 30 27 26 25 25 27 26 27 27 27 26 26 27 28 29 30 32 33 32 31 29 27 24
36 35 34 33 32 32 31 30 29 29 29 29 28 27 25 21 24 24 24 19 24 23 25 24 24 23 21 21 20 20 21 22 23 24 26 25 26 28 30 31 31 28 23 28
33 33 32 31 32 32 31 32 29 28 28 26 22 20 20 18 17 16 18 23 24 22 21 22 20 17 16 17 18 22 23 23 22 22 24 25 26 27 27 28 27 25 25 29
31 31 31 30 30 30 30 28 25 26 27 22 21 16 15 18 17 13 19 21 21 18 19 20 17 14 13 15 18 18 18 18 17 18 19 19 21 21 22 22 23 23 22 22
31 30 30 29 28 28 27 27 26 24 23 19 13 13 13 20 16 17 14 19 20 13 17 20 17 10 12 13 16 14 14 15 11 13 13 14 16 16 17 17 18 18 18 17
31 31 29 28 27 27 27 24 22 20 16 14 13 15 16 20 20 17 16 19 19 15 17 17 11 7 7 10 12 13 10 12 9 9 9 11 11 12 13 12 12 12 12 13
31 30 30 29 26 24 23 25 24 22 15 20 15 10 19 12 10 19 18 13 8 8 9 11 10 9 4 1 6 10 8 10 7 7 6 7 7 9 9 8 8 9 9 9
29 29 28 26 23 22 21 21 22 20 20 21 19 21 20 20 11 11 8 8 12 9 5 5 6 6 1 -2 1 7 7 8 4 5 3 4 2 5 4 5 6 6 7 7
29 24 22 22 21 19 20 20 19 19 19 13 13 8 11 11 12 11 7 7 8 8 4 -1 -1 0 2 -1 -2 -2 -2 4 -0 4 1 -2 -1 -0 -2 1 2 4 4 5
25 24 21 20 20 20 20 19 17 12 10 5 5 5 16 11 5 7 2 0 -0 0 -3 -3 -3 -0 1 2 -4 -2 -6 -5 -5 2 -6 -10 -4 -4 -2 -1 1 2 2 3

GFSNGP_sfc_dewp_027.txt.gz
Dewpoint
25 24 29 27 27 28 26 26 24 24 25 26 25 23 24 25 29 38 43 42 41 42 44 45 47 46 45 42 41 39 37 34 35 37 35 35 34 34 33 33 32 31 31 33
29 30 29 26 27 26 27 26 26 25 24 26 26 27 28 26 29 32 38 41 40 40 43 43 45 45 42 41 40 37 35 35 35 38 36 35 34 34 33 32 32 31 31 32
24 28 27 24 25 26 25 25 26 23 25 28 29 29 30 30 32 34 37 39 40 41 41 43 43 44 42 41 39 37 37 38 38 36 33 32 31 31 31 32 33 33 33 31
25 24 18 27 29 26 26 26 27 27 29 32 33 34 34 33 33 33 34 35 34 35 41 42 43 43 41 38 37 36 35 34 33 32 32 33 33 34 34 35 36 34 31 31
24 24 25 25 24 26 24 24 29 30 33 34 35 35 35 37 34 32 32 31 31 30 31 33 36 37 33 31 31 31 32 32 33 33 33 34 35 36 37 37 33 31 30 29
25 21 19 27 27 27 28 24 30 30 32 34 31 29 35 35 32 31 31 31 31 31 33 33 33 33 32 31 31 31 31 32 35 36 36 36 37 37 37 33 30 30 30 30
22 21 23 26 29 24 20 23 33 33 33 32 32 34 36 33 31 30 32 32 33 33 33 32 32 33 32 32 33 35 37 39 40 40 39 38 37 36 33 30 29 27 28 28
25 20 20 31 30 22 28 34 35 35 36 37 38 34 32 31 30 31 32 32 32 33 33 33 32 33 33 35 38 39 39 39 39 39 37 36 34 31 29 29 27 27 25 27
29 28 32 33 29 31 36 35 34 35 39 40 33 31 31 30 31 32 32 32 31 31 31 32 33 34 34 35 37 37 35 34 33 32 31 31 30 29 29 27 25 26 27 26
30 33 35 34 39 38 36 37 39 41 41 36 30 31 30 31 32 32 32 31 31 30 30 30 30 31 31 31 30 30 29 29 30 29 29 30 30 30 28 26 25 27 27 27
32 38 38 40 39 37 36 36 34 33 33 32 32 31 32 32 32 32 32 31 31 30 29 28 29 29 29 29 29 28 28 29 29 28 28 28 28 29 29 29 29 28 28 28
31 37 35 38 38 37 36 35 34 33 33 33 32 32 32 32 32 31 31 30 29 29 29 28 28 29 30 31 30 29 29 29 28 27 27 28 28 28 30 31 31 31 31 30
34 39 38 38 37 36 36 35 35 34 34 33 33 33 32 32 32 32 30 29 29 28 29 29 30 30 30 30 30 29 28 29 29 28 28 28 28 28 27 29 31 31 31 32
38 37 36 36 35 36 35 35 35 34 34 34 33 33 33 32 30 30 29 29 30 30 30 29 27 27 29 29 27 28 28 27 26 26 26 27 26 27 28 26 26 28 30 31
37 38 37 36 35 34 34 33 33 33 33 33 34 33 30 29 29 29 30 30 29 27 25 24 23 25 26 23 22 24 23 23 23 23 22 22 23 23 23 23 24 24 25 25
36 35 35 34 33 32 33 32 31 30 30 30 31 31 30 30 29 28 29 29 27 24 22 19 23 20 21 18 19 20 20 20 19 21 22 21 22 21 22 22 23 23 23 24
34 33 33 33 32 32 32 30 29 28 29 29 29 29 27 25 26 27 28 27 23 21 23 21 18 16 18 17 18 20 19 19 18 18 18 18 18 18 19 19 19 19 19 20
36 35 34 33 33 30 29 29 29 29 28 28 25 22 21 21 23 24 26 23 20 20 21 18 15 13 14 16 16 16 16 16 13 13 15 13 14 15 14 15 15 14 14 15
35 34 33 31 30 29 29 29 29 29 27 25 22 21 21 21 23 22 20 16 14 17 18 16 16 14 11 15 15 13 12 10 9 11 9 8 10 9 9 10 9 10 10 11
32 32 30 30 30 29 29 29 28 27 25 23 22 22 22 18 19 16 16 16 16 19 18 14 12 11 11 10 10 11 9 4 7 5 4 5 5 3 4 7 4 5 6 7
31 30 29 29 29 29 29 27 25 24 24 21 21 18 18 18 17 14 16 17 15 18 17 14 13 13 11 8 11 -0 1 -2 -4 -0 -6 -1 0 -1 -0 2 -0 1 3 3
31 30 29 28 27 26 25 25 23 22 21 17 15 15 16 17 15 15 12 16 16 10 15 14 13 3 6 4 7 -5 1 -2 -3 -4 -6 -6 -5 -6 -3 -4 -4 -1 -0 0
30 29 29 27 26 25 25 23 20 19 16 15 15 17 18 19 18 14 14 16 16 9 13 5 1 -1 -3 -9 -10 -12 -11 -10 -13 -12 -13 -18 -17 -12 -6 -7 -7 -5 -5 -3
29 28 27 26 24 23 22 22 20 19 16 18 15 14 18 13 11 16 14 6 1 -2 -2 -6 -4 -2 -8 -14 -14 -16 -15 -16 -19 -18 -13 -16 -21 -16 -15 -12 -10 -7 -7 -5
28 26 25 23 22 22 21 22 21 20 19 20 19 19 17 15 9 9 2 2 6 2 -4 -9 -5 -8 -15 -17 -18 -19 -18 -19 -21 -19 -21 -23 -20 -17 -17 -16 -12 -9 -8 -7
26 23 22 22 23 22 21 21 20 18 15 13 14 8 8 10 9 8 1 -1 0 -2 -6 -14 -15 -16 -17 -14 -15 -15 -17 -15 -20 -18 -22 -24 -22 -19 -18 -15 -14 -11 -10 -9
22 22 21 20 20 20 19 19 18 17 14 12 13 11 10 7 2 3 -6 -7 -9 -13 -14 -16 -17 -14 -15 -18 -17 -12 -13 -18 -21 -17 -25 -27 -24 -24 -21 -18 -16 -14 -12 -11

GFSNGP_sfc_dewp_030.txt.gz
Dewpoint
25 24 26 26 26 28 26 26 24 25 24 25 26 25 25 25 25 31 41 45 45 46 46 47 47 47 46 43 42 42 40 37 34 35 35 35 37 35 35 34 33 32 33 33
28 29 29 28 26 27 27 27 26 25 24 27 26 28 29 27 33 36 40 43 42 42 43 45 47 47 46 43 41 41 40 37 39 39 39 37 35 35 35 34 33 32 32 33
24 29 26 24 26 27 27 27 26 25 26 26 28 30 30 31 35 36 36 36 38 41 41 42 44 45 43 43 41 39 38 38 40 40 38 36 34 32 32 32 34 35 36 36
24 25 17 25 29 27 26 26 26 26 27 28 31 33 34 34 33 33 33 32 32 33 36 38 42 42 40 38 37 37 37 38 38 35 33 34 34 34 35 36 38 38 37 34
24 24 23 25 25 25 25 23 27 27 33 34 35 34 35 32 32 32 32 31 31 33 33 33 32 32 32 32 32 33 33 34 34 35 35 36 36 37 38 38 38 36 34 33
23 21 19 27 28 27 26 22 29 33 34 34 33 25 32 32 32 31 32 32 33 33 33 33 32 32 31 31 32 32 34 36 37 37 37 37 38 38 38 37 34 34 30 30
21 20 26 29 27 26 20 23 31 33 34 34 28 29 33 32 31 32 32 33 33 32 32 32 32 32 33 35 36 38 38 39 40 40 39 39 38 37 37 36 32 29 28 28
25 20 24 29 29 24 28 33 33 33 34 34 35 33 31 31 31 31 31 32 33 33 33 34 34 35 36 36 38 38 39 39 39 39 38 37 35 33 30 29 28 28 25 27
30 29 32 32 30 31 33 34 34 35 37 38 33 32 31 31 31 31 31 30 31 31 32 33 34 35 35 35 34 33 32 31 31 30 30 30 30 29 29 28 25 26 27 27
30 31 32 34 36 35 34 34 36 37 39 35 32 31 31 31 31 30 30 29 30 29 29 29 30 30 30 30 29 28 28 28 29 29 29 29 28 29 28 26 26 27 27 27
30 36 38 38 38 36 36 37 36 34 33 32 31 31 31 32 31 31 30 30 29 28 28 28 29 30 30 29 29 29 29 29 29 27 27 28 28 28 28 28 28 28 28 28
31 35 34 32 37 37 36 35 34 33 32 32 32 32 32 32 31 30 30 29 29 28 29 30 30 30 29 29 28 28 27 27 27 26 25 27 27 25 29 30 30 31 31 31
33 38 37 37 36 36 35 34 34 33 32 32 32 32 32 31 30 31 29 28 28 30 30 28 27 26 27 27 27 26 26 25 25 24 24 23 23 23 22 23 25 26 27 28
38 37 36 36 35 35 35 34 34 33 33 32 32 32 31 31 30 29 29 30 30 27 25 24 25 24 22 21 22 22 22 22 21 21 21 21 19 21 22 20 20 21 23 24
37 37 37 35 34 34 34 33 32 32 32 32 32 31 30 29 29 30 30 28 24 23 23 22 20 19 19 19 18 19 20 19 19 18 18 18 19 18 19 19 18 18 19 18
35 35 34 33 33 33 33 33 32 32 32 31 30 30 29 29 29 29 28 27 22 21 20 17 17 15 17 17 18 17 18 18 17 17 16 16 15 15 15 15 16 15 15 14
34 32 32 32 32 32 31 31 31 31 31 31 30 28 27 28 27 26 23 22 22 20 19 17 15 14 15 15 15 14 16 15 12 14 13 12 11 12 11 11 11 10 10 10
37 35 34 33 32 30 29 29 30 30 30 29 27 26 26 27 26 24 21 21 20 19 17 15 13 12 13 13 12 12 13 9 11 10 9 8 9 8 6 8 7 5 5 6
35 34 33 33 31 30 29 29 29 28 26 25 24 24 24 24 24 21 18 16 16 17 15 13 16 12 9 13 11 11 10 3 5 7 4 2 3 2 1 3 3 0 2 3
31 32 31 30 30 29 28 28 28 26 25 24 24 23 22 20 18 16 16 16 18 18 15 13 12 11 9 10 10 9 6 -2 4 1 -3 -1 -9 -11 -9 -2 -3 -3 -3 -1
30 30 29 29 28 29 29 29 26 24 24 24 23 22 21 19 16 15 15 15 15 18 15 13 13 12 8 8 8 -5 -4 -9 -9 -8 -15 -16 -17 -12 -12 -12 -11 -9 -6 -4
30 29 28 28 27 26 26 25 24 24 21 19 18 18 18 17 14 15 11 16 16 12 14 13 12 4 5 5 4 -8 -3 -6 -8 -11 -14 -17 -20 -20 -17 -16 -14 -11 -9 -8
30 29 28 27 26 24 22 22 22 20 18 17 17 17 18 18 17 14 13 15 15 10 12 7 2 -1 -5 -11 -12 -15 -14 -15 -17 -18 -19 -24 -25 -25 -20 -16 -14 -14 -12 -11
29 27 26 26 24 21 19 18 18 18 18 19 16 15 16 13 11 15 13 6 3 0 -0 -5 -4 -2 -9 -16 -17 -19 -19 -21 -22 -25 -18 -21 -28 -28 -22 -21 -18 -15 -14 -12
27 26 25 24 22 22 20 19 20 20 20 19 19 18 17 15 12 12 9 8 8 4 -2 -8 -6 -10 -18 -20 -20 -20 -20 -22 -24 -26 -24 -28 -26 -26 -23 -22 -21 -19 -15 -14
24 23 22 22 21 22 22 21 19 18 18 16 16 15 13 13 11 10 7 4 3 -1 -5 -13 -15 -19 -20 -18 -20 -21 -16 -14 -21 -23 -24 -27 -29 -24 -25 -22 -23 -20 -18 -16
21 21 20 18 18 19 19 19 18 16 15 16 15 13 11 9 7 6 2 0 -5 -12 -15 -15 -18 -16 -18 -21 -21 -19 -17 -18 -22 -19 -27 -31 -31 -29 -27 -26 -24 -22 -20 -18

GFSNGP_sfc_dewp_033.txt.gz
Dewpoint
25 23 27 27 28 29 27 29 29 28 25 26 28 28 29 28 29 30 36 43 46 48 49 49 49 49 49 48 45 45 42 41 43 41 39 39 38 38 37 37 35 35 35 35
27 28 27 27 27 29 28 27 27 26 26 29 29 27 29 30 36 39 40 42 42 43 45 47 48 48 47 46 44 43 42 41 39 39 37 39 39 38 37 36 35 34 33 35
25 29 30 29 30 28 29 29 29 28 29 29 28 30 30 36 37 36 36 37 39 41 42 43 45 47 46 45 44 42 41 39 40 39 38 39 38 35 34 35 36 38 39 40
29 28 26 28 29 28 29 29 28 27 28 28 29 34 34 35 35 33 33 34 35 37 38 39 40 40 40 39 39 39 39 39 38 37 35 34 35 36 38 40 40 40 40 40
30 27 27 24 27 28 28 24 28 27 29 32 35 34 32 32 33 33 33 34 35 34 35 35 35 35 35 35 35 35 35 35 35 35 36 38 38 39 39 40 40 39 38 37
27 27 25 31 29 29 27 25 30 30 33 34 35 35 33 32 33 32 33 34 34 34 33 33 33 34 34 34 35 36 36 36 37 37 38 39 39 40 39 39 38 37 36 36
27 32 30 30 28 29 26 28 33 33 36 36 32 33 35 33 33 33 33 33 33 33 32 33 35 36 36 36 36 37 38 38 39 39 39 39 39 38 38 38 36 36 33 33
29 32 28 31 27 29 35 33 35 37 38 38 35 33 33 32 32 32 32 32 33 34 34 36 36 36 36 37 38 39 38 36 36 35 33 32 33 32 31 31 31 32 33 32
34 35 38 33 35 34 34 34 36 37 37 37 34 32 32 32 32 32 31 32 33 34 35 35 34 33 30 30 30 30 30 30 30 30 30 30 30 30 30 30 30 31 30 31
35 35 34 35 34 36 35 36 36 37 37 36 34 32 32 31 30 30 31 31 31 30 29 29 29 29 29 29 29 30 30 30 29 28 27 27 26 26 26 27 27 26 27 27
33 33 38 38 38 37 37 39 38 37 37 35 33 32 31 30 30 30 30 29 29 29 29 30 29 29 29 29 29 27 26 25 24 23 21 20 20 22 23 23 26 26 25 25
34 34 36 36 38 38 37 37 36 34 33 33 33 32 31 30 30 30 29 29 29 30 29 28 26 24 25 25 24 22 20 20 22 22 22 20 19 18 23 23 24 24 25 26
35 38 37 37 37 37 36 36 35 34 33 32 32 32 31 31 30 30 28 29 29 29 27 24 21 18 20 21 20 20 19 19 20 20 19 19 19 18 18 19 20 21 21 22
38 38 36 36 36 36 35 34 34 33 33 33 32 32 31 30 29 29 29 29 27 25 25 22 17 15 17 17 17 18 18 20 19 19 18 18 18 18 18 18 18 18 18 18
37 37 38 36 35 34 34 33 32 32 32 32 32 32 30 29 29 29 28 24 24 23 20 17 15 15 17 17 14 16 15 16 18 18 18 16 16 16 16 15 15 14 14 13
35 35 35 34 34 33 33 32 32 32 32 32 31 30 30 30 29 25 23 24 23 20 16 18 16 15 16 16 12 14 16 15 14 15 14 13 13 13 11 12 12 12 11 11
34 33 33 33 33 33 33 33 32 32 31 30 29 30 29 28 27 25 23 21 20 19 17 17 14 14 14 13 10 12 14 12 12 11 11 10 11 11 9 9 10 9 8 9
38 36 35 34 33 32 32 32 32 31 30 29 29 29 28 27 25 23 22 20 19 18 15 13 12 12 11 10 9 11 10 9 10 9 8 8 7 6 6 5 7 5 5 6
36 35 34 33 32 31 31 31 30 29 29 29 29 28 28 26 23 22 21 20 18 16 13 13 14 11 10 12 10 11 8 8 7 6 5 4 5 2 3 4 5 4 3 3
32 31 31 30 30 30 28 29 29 28 29 27 26 25 24 23 21 20 20 19 18 17 14 12 11 9 9 10 9 8 8 7 4 5 4 3 3 2 2 -0 0 1 2 2
30 30 29 29 29 29 29 29 28 27 26 27 25 23 22 20 19 18 17 16 16 16 13 13 12 10 8 9 6 10 8 6 4 4 3 2 1 0 -0 -1 -0 -0 0 0
29 28 28 28 27 26 27 27 26 25 24 22 22 21 19 18 18 17 18 16 17 16 14 13 11 7 8 7 7 9 7 4 3 3 3 1 0 -2 -2 -3 -3 -2 -2 -2
29 29 28 26 25 24 24 24 23 22 21 21 21 20 20 18 17 16 15 15 16 14 12 12 8 5 4 9 8 7 6 3 2 1 2 0 -1 -3 -4 -5 -6 -5 -5 -4
27 26 25 25 25 22 20 19 19 20 20 20 19 20 18 17 17 16 16 14 13 13 12 11 9 5 3 7 6 5 4 3 2 1 0 -7 -2 -4 -5 -7 -8 -7 -7 -7
26 26 26 24 22 21 20 19 19 19 19 18 18 18 18 18 19 16 15 14 12 11 11 3 3 0 5 5 5 3 3 3 2 -0 -1 -2 -4 -6 -6 -7 -9 -9 -10 -9
22 21 20 21 22 22 22 22 19 20 19 18 18 17 17 16 15 14 13 11 10 7 9 7 6 4 3 3 3 1 1 2 1 -0 -3 -3 -5 -7 -8 -10 -11 -11 -11 -10
17 18 17 16 17 17 18 18 18 17 18 18 16 16 14 13 12 11 8 9 8 6 6 6 5 3 3 2 1 1 1 1 -2 -2 -2 -5 -7 -8 -11 -12 -12 -13 -13 -12

GFSNGP_sfc_dewp_036.txt.gz
Dewpoint
20 18 17 18 18 22 24 25 25 25 23 24 23 26 25 29 29 31 32 37 43 47 50 51 53 53 53 53 53 52 51 50 51 51 50 50 49 47 45 43 39 37 37 37
25 21 22 21 20 19 24 23 24 25 24 24 26 29 29 29 32 36 40 42 45 47 48 49 50 50 50 49 49 49 47 46 45 44 44 43 41 40 39 38 36 36 36 36
24 29 27 29 28 23 24 26 28 25 26 24 26 28 30 32 36 38 41 42 42 43 44 45 46 48 47 47 46 45 44 43 42 41 40 40 37 36 35 35 37 38 39 38
29 33 31 23 28 27 26 26 27 27 25 27 26 29 33 36 38 37 38 39 40 41 42 42 43 43 44 43 43 42 42 41 40 39 38 37 36 36 38 40 40 40 39 38
36 28 25 24 27 28 28 26 27 27 26 27 31 33 34 35 36 36 38 38 38 39 39 40 39 40 39 38 38 38 37 37 37 38 37 38 39 40 40 40 40 39 39 39
32 29 31 26 26 30 29 26 26 28 29 30 33 34 31 35 35 36 36 36 36 37 37 37 37 37 37 37 38 37 37 36 37 38 38 38 39 40 40 40 39 38 37 37
34 35 29 29 29 29 27 30 31 30 31 34 35 33 36 36 36 35 35 35 36 36 36 37 37 38 37 37 36 37 37 38 38 39 39 40 40 39 38 37 35 35 34 34
35 36 33 32 29 29 34 37 34 36 35 38 37 37 36 35 35 34 34 34 35 36 36 37 36 36 35 36 37 38 36 34 33 32 30 28 29 29 28 29 31 31 35 32
34 32 35 34 34 34 37 34 36 36 36 39 36 36 35 35 34 34 33 34 35 35 36 36 36 35 35 35 33 32 30 29 29 29 29 29 29 29 28 29 29 30 28 29
36 32 35 36 34 35 34 35 33 35 37 38 36 35 35 34 34 33 33 33 34 33 32 31 30 29 30 29 28 29 29 28 28 27 26 24 22 20 20 22 23 22 23 23
36 35 35 36 36 35 34 36 36 35 38 37 36 35 34 34 33 32 32 33 32 31 30 29 29 28 28 28 27 26 26 24 23 22 18 17 16 20 20 22 24 23 23 23
38 35 37 34 36 37 36 37 37 37 38 37 35 34 34 33 33 32 31 31 31 30 29 27 27 26 26 25 25 23 20 18 22 22 20 16 15 17 23 22 21 21 21 23
36 38 38 39 38 38 37 36 38 38 37 36 35 34 33 33 33 32 31 31 30 29 27 25 23 21 21 21 20 19 17 17 19 19 17 17 17 17 17 21 18 18 17 18
39 38 37 37 36 38 38 37 38 37 36 36 34 34 33 33 32 31 30 30 29 26 23 21 18 18 18 17 17 17 17 19 17 18 17 18 18 18 18 18 19 19 16 14
38 38 38 38 36 36 36 35 35 35 35 34 34 34 33 31 31 30 30 27 26 24 21 18 16 15 15 14 12 14 14 15 19 21 19 17 19 18 17 16 16 16 15 13
37 36 37 36 35 35 35 35 35 34 34 34 34 33 32 31 30 29 27 26 23 21 18 21 17 15 16 11 11 14 15 15 16 16 17 16 16 15 13 14 15 15 14 13
36 36 36 35 35 35 35 35 34 34 34 33 32 32 31 29 27 25 24 23 23 22 21 19 15 13 14 9 9 12 14 15 13 14 13 13 14 14 13 13 13 13 13 14
39 37 37 37 36 35 35 35 35 34 33 32 32 31 29 27 26 25 24 22 22 19 16 14 13 11 10 9 10 11 12 12 13 12 12 14 11 11 12 11 11 11 11 11
37 36 36 35 35 35 35 33 32 31 31 31 30 30 28 27 26 24 23 21 20 17 14 13 15 12 11 12 10 12 12 13 12 10 11 8 13 10 11 11 10 10 9 9
33 33 33 32 32 31 29 30 30 30 30 30 28 26 25 25 25 24 23 21 18 16 14 12 10 9 10 9 9 10 12 13 9 11 12 10 12 11 10 6 7 9 10 10
30 29 29 29 29 30 30 30 29 28 30 29 27 25 23 23 24 23 20 17 15 15 13 13 11 9 8 8 6 15 13 14 12 11 11 10 10 9 8 8 8 8 8 8
29 28 28 28 27 27 28 29 27 26 25 24 24 23 22 21 20 20 21 18 16 16 14 14 11 10 9 5 9 13 11 10 10 10 10 9 8 7 7 7 6 6 6 7
29 27 27 26 25 25 25 25 25 25 24 24 24 24 22 20 19 18 16 16 16 15 14 15 11 9 6 14 13 12 11 9 8 8 8 8 7 6 5 4 4 4 4 4
27 26 26 26 26 25 22 23 22 21 23 22 22 22 20 20 20 18 18 17 17 18 17 15 13 6 7 13 12 10 9 9 8 8 7 3 6 5 4 3 2 2 1 1
26 26 26 24 22 22 22 22 22 22 21 20 21 20 21 21 23 20 20 18 15 15 16 10 5 2 11 11 10 8 8 8 8 7 6 6 5 4 3 3 1 0 -1 -1
20 20 20 20 21 22 22 21 21 22 21 21 20 21 21 20 19 18 17 15 14 10 13 14 12 11 10 9 8 7 7 6 6 6 4 4 4 2 2 0 -1 -2 -1 -2
17 18 17 16 16 17 18 18 19 18 19 20 19 19 18 18 17 15 13 14 13 11 11 11 11 9 8 8 7 7 6 6 4 3 3 3 2 2 0 -1 -2 -3 -4 -5

GFSNGP_sfc_dewp_039.txt.gz
Dewpoint
21 19 18 19 20 20 20 22 25 24 21 24 24 23 23 28 27 26 27 29 34 43 48 51 53 54 55 56 56 55 54 54 55 55 53 53 51 51 50 50 48 42 41 39
23 19 17 17 16 15 16 17 19 18 19 22 22 21 22 23 26 29 32 35 40 43 48 50 52 53 53 53 54 53 52 51 51 50 49 49 48 47 46 42 40 39 38 39
26 22 22 25 21 19 19 17 20 22 23 23 23 22 25 26 27 32 37 40 43 46 48 50 50 51 50 49 49 48 46 45 45 44 43 43 40 38 38 37 38 38 39 39
31 34 28 25 23 22 21 21 21 20 22 23 24 22 28 30 31 37 40 42 43 44 45 45 45 45 45 44 44 44 43 43 43 42 40 38 37 37 37 39 39 39 39 39
33 30 25 21 21 24 23 22 22 23 24 24 23 30 33 34 37 39 41 41 41 41 42 42 42 42 41 40 40 40 39 39 39 40 39 39 39 40 40 39 39 39 39 39
34 28 27 26 24 26 25 26 23 23 24 26 27 34 29 36 38 39 39 39 39 39 39 39 39 39 38 38 38 38 39 38 39 39 39 39 40 39 40 40 39 39 39 39
35 32 29 24 23 25 28 26 28 25 27 27 28 33 36 37 38 37 37 37 38 38 38 38 38 39 38 38 37 37 38 38 38 39 39 39 39 39 39 38 36 36 34 34
36 34 33 29 29 28 33 35 33 33 32 32 31 39 37 37 36 36 35 36 37 38 38 38 38 38 37 37 38 39 39 38 37 37 34 32 31 29 27 29 31 33 34 33
33 33 37 36 35 33 32 31 34 36 32 33 38 38 37 36 36 35 35 35 37 37 37 37 37 37 37 37 36 37 35 31 28 27 26 27 28 28 26 27 28 28 25 27
35 34 32 35 35 34 34 35 35 35 33 35 39 38 37 36 35 35 35 35 36 37 36 37 36 36 36 35 33 31 29 28 27 26 24 23 19 17 20 24 24 23 23 23
33 31 31 34 36 37 34 36 35 34 34 36 39 37 36 35 36 35 35 35 36 35 34 33 32 31 30 29 28 27 26 25 24 22 20 18 19 19 21 23 22 22 23 22
37 35 40 36 37 39 37 35 36 35 35 38 37 36 36 36 36 35 35 35 34 33 32 31 30 28 28 27 26 24 23 22 25 24 20 16 17 23 23 23 21 21 20 21
36 38 40 40 39 37 37 36 36 37 35 36 36 36 36 36 36 35 35 34 33 32 31 29 27 25 24 25 24 23 21 20 21 22 19 17 18 19 18 23 21 21 19 16
37 40 38 38 36 39 38 37 38 36 37 37 36 36 36 35 35 34 33 33 32 30 28 25 23 21 21 19 18 19 19 23 19 18 19 19 18 19 19 20 21 21 19 14
40 39 39 39 38 37 37 37 37 37 37 37 37 36 35 35 33 33 33 31 28 25 22 21 18 16 15 15 14 17 16 17 21 23 21 19 20 19 18 17 17 17 17 17
39 38 38 38 37 36 36 36 36 36 36 37 36 36 35 34 33 32 29 28 24 21 19 22 19 17 15 14 14 14 16 18 19 18 17 17 17 17 15 15 16 16 16 15
39 39 39 38 37 36 36 36 36 36 36 36 36 37 33 32 28 26 24 24 25 25 25 24 21 19 14 12 12 14 16 16 15 16 15 14 16 16 14 15 15 14 15 16
40 39 39 39 37 37 36 37 37 37 36 34 33 31 30 26 25 24 24 24 23 23 24 23 16 12 10 11 11 12 14 13 14 14 13 16 13 12 14 14 13 13 13 14
36 36 36 36 36 36 34 33 32 31 31 31 29 27 26 25 24 23 24 22 21 19 19 19 17 13 11 13 12 13 14 15 13 11 13 10 15 13 13 14 13 13 12 13
30 30 30 30 31 31 30 31 30 29 29 28 27 25 24 25 25 25 25 23 23 19 17 14 11 11 9 9 11 11 14 15 11 12 14 12 14 14 14 11 11 12 13 13
28 28 28 28 29 30 30 31 30 29 29 28 25 25 25 25 24 24 21 17 20 20 16 15 12 10 9 8 7 16 15 15 14 13 13 13 13 13 12 12 12 12 12 12
29 28 28 28 27 27 28 28 28 26 25 24 24 24 23 22 23 23 24 19 19 17 15 14 12 12 10 10 12 16 13 12 12 12 12 12 12 11 11 11 10 10 10 9
28 28 27 26 25 26 27 27 27 27 26 26 25 25 24 24 24 21 18 19 17 17 17 18 13 10 6 17 16 14 13 12 11 11 11 11 11 11 10 8 8 8 8 7
27 27 27 27 27 25 23 24 24 24 24 23 24 26 25 23 22 20 20 19 19 20 19 17 14 8 9 14 14 13 12 12 12 12 11 9 10 10 9 8 6 6 5 4
24 24 25 24 23 24 24 24 23 23 22 22 22 21 21 21 23 22 21 18 16 18 18 11 9 8 13 13 13 11 11 11 12 9 7 8 8 8 8 7 5 5 3 2
20 19 19 19 20 21 22 21 19 21 21 21 21 22 22 21 20 19 18 16 15 13 15 15 13 12 12 13 12 10 10 9 9 9 8 7 7 7 6 4 4 3 2 2
15 16 15 14 15 15 16 16 17 17 17 19 19 19 18 19 18 16 16 16 15 14 14 14 13 12 9 9 8 10 10 9 9 7 5 5 5 5 4 3 3 1 -0 -1

GFSNGP_sfc_dewp_042.txt.gz
Dewpoint
26 22 21 24 22 20 24 28 26 27 23 22 24 32 35 32 30 29 29 30 33 40 48 51 54 55 55 58 59 58 58 57 57 56 55 54 53 53 51 51 50 47 43 41
29 25 21 21 20 21 20 20 19 20 22 24 24 32 32 31 24 28 28 28 31 37 48 51 54 54 56 56 56 56 55 54 55 55 53 54 53 52 49 46 42 40 39 39
29 28 26 25 24 20 22 20 19 19 23 23 22 25 30 28 25 26 30 36 40 42 49 52 53 55 54 54 54 53 50 49 51 50 49 47 44 42 41 40 40 39 39 40
32 35 24 24 24 22 21 19 20 20 20 21 22 23 27 30 33 34 37 40 44 48 51 51 52 51 51 50 48 47 46 45 45 44 42 40 39 38 39 39 39 40 39 39
33 29 26 21 23 25 24 23 24 22 21 21 21 26 34 34 39 40 42 44 46 47 48 48 47 46 45 44 44 43 43 42 42 41 39 39 39 39 39 39 39 39 38 39
37 29 27 31 27 26 25 24 27 25 26 26 27 36 33 36 40 41 42 43 43 44 44 43 43 43 42 40 40 40 40 40 40 40 40 40 41 42 41 41 40 39 40 40
36 33 33 30 28 26 25 30 33 32 31 31 35 36 38 39 40 40 40 40 41 41 40 40 40 40 39 39 39 39 40 39 40 40 40 40 40 40 40 39 39 38 37 35
37 34 31 34 32 27 35 35 38 35 36 42 40 41 39 39 39 39 38 38 39 39 39 39 39 39 38 37 38 39 39 39 40 40 39 38 39 36 35 34 34 33 33 33
37 37 40 41 36 37 39 39 39 38 37 39 40 40 39 38 38 37 37 37 37 38 39 39 39 38 37 38 39 39 39 38 37 33 31 30 31 31 31 32 31 29 29 30
36 34 35 40 40 39 37 40 38 35 37 40 40 40 39 38 37 37 36 36 37 38 38 38 38 38 39 38 37 37 33 30 29 28 27 27 22 24 28 28 28 28 28 27
35 34 32 33 36 40 40 40 39 37 38 38 39 39 38 37 37 36 35 37 37 38 38 37 37 37 36 35 32 31 30 28 27 27 24 23 21 24 25 22 25 26 25 25
35 35 42 40 41 41 41 39 38 40 39 37 37 40 38 38 37 36 36 37 37 38 37 35 35 33 31 31 30 28 26 26 29 28 25 22 22 21 26 23 22 21 20 22
38 40 40 43 40 39 39 40 40 40 40 37 39 39 38 38 38 37 37 37 36 35 33 31 30 29 29 30 29 27 26 25 26 27 26 24 25 25 22 22 22 21 20 19
41 42 39 42 40 40 40 40 41 40 39 39 39 38 39 39 38 37 36 36 35 33 31 28 26 24 24 23 23 22 22 27 24 24 24 26 24 24 25 25 23 23 20 17
40 40 39 39 39 38 38 38 39 39 39 39 41 40 39 37 36 36 35 33 31 28 25 23 20 19 20 20 19 22 23 23 26 24 23 23 24 24 22 22 22 21 22 19
39 39 39 39 38 38 37 37 37 39 39 40 39 39 37 36 34 31 30 28 26 23 21 22 17 19 20 18 19 20 22 23 24 23 22 21 22 21 20 20 20 21 20 20
39 38 39 39 39 37 37 37 38 38 39 37 35 31 27 26 24 24 23 23 24 24 24 23 18 17 21 22 24 24 22 20 19 21 18 18 19 20 18 19 19 18 19 14
37 36 36 37 37 37 35 35 33 33 31 29 28 26 25 24 23 23 23 23 22 22 23 24 24 22 22 22 21 18 19 18 18 17 17 19 16 16 17 17 16 16 17 16
31 31 31 32 32 32 31 30 30 29 28 27 24 24 24 24 23 22 23 21 20 18 20 22 22 20 18 18 17 18 19 19 15 14 15 14 17 17 17 17 15 15 14 15
28 28 28 28 29 29 28 28 28 27 27 26 24 23 22 23 24 23 22 20 21 20 21 21 19 16 15 15 15 16 17 17 13 15 17 13 16 16 15 14 14 14 14 14
26 27 26 26 26 26 26 26 25 24 25 25 24 22 22 23 23 22 19 17 20 21 21 21 18 14 10 10 10 19 18 17 17 16 16 16 15 15 15 14 14 13 12 13
27 26 25 25 25 25 26 26 25 25 24 24 24 24 22 22 21 21 21 18 20 22 20 17 13 13 12 16 17 18 16 16 15 15 15 14 14 13 12 12 11 11 11 8
26 26 25 24 23 24 24 24 24 24 23 23 22 22 22 22 24 20 17 21 22 22 18 16 14 13 12 17 17 17 16 14 14 14 13 13 13 12 10 10 9 8 7 8
26 26 26 26 25 23 22 24 24 24 24 23 23 23 24 21 21 21 21 20 19 18 16 16 13 11 9 17 16 15 13 13 12 13 13 9 12 11 11 8 7 7 6 5
23 23 23 23 23 23 23 24 24 23 22 21 21 20 19 21 21 21 20 18 16 19 14 11 10 10 14 15 14 12 12 12 12 9 9 9 8 8 8 7 7 5 4 -0
19 17 17 17 17 18 19 19 17 17 22 19 20 21 21 21 21 19 17 17 15 14 15 16 14 13 13 11 9 9 10 11 10 10 9 7 6 5 5 5 5 4 3 2
14 15 13 13 15 15 16 14 16 16 15 18 18 18 18 19 18 16 16 15 15 15 13 13 13 11 12 10 10 9 8 8 8 8 6 5 4 4 4 3 3 1 -1 -2

GFSNGP_sfc_dewp_048.txt.gz
Dewpoint
26 23 25 24 22 26 26 26 25 25 30 30 31 30 31 31 34 34 32 29 35 43 44 47 49 52 50 53 53 56 57 57 58 59 59 58 57 54 53 52 52 50 49 48
28 27 24 23 28 25 26 27 25 25 28 32 32 30 31 33 33 33 33 30 31 42 47 50 53 56 56 56 55 57 57 57 59 57 57 55 54 53 52 50 49 47 47 44
27 28 27 24 26 26 26 26 29 29 31 31 30 29 31 32 33 32 32 27 29 41 48 52 55 55 55 56 58 58 58 57 55 55 55 53 52 50 48 47 46 43 42 42
30 28 23 26 26 25 25 26 26 25 25 26 27 25 28 32 32 32 32 31 31 46 51 54 54 54 53 54 55 55 55 54 53 52 50 49 48 45 44 44 44 42 41 41
30 30 29 28 29 28 26 25 27 25 23 23 23 25 26 30 32 33 32 34 39 49 53 53 53 53 51 51 52 51 50 49 48 47 45 44 43 43 41 40 39 38 38 38
32 28 27 29 30 32 29 24 27 28 28 28 28 25 27 31 35 37 41 46 50 51 51 52 50 49 47 46 46 45 44 45 44 42 41 39 39 38 38 38 37 37 37 36
30 29 33 36 37 34 26 26 39 39 34 31 29 31 30 36 41 43 45 47 48 49 50 48 46 46 44 44 43 42 41 40 39 39 39 38 38 37 37 37 37 37 35 33
32 31 26 41 36 32 37 41 40 41 39 38 37 36 37 40 42 43 44 44 45 45 44 43 43 43 41 41 41 41 41 40 40 39 39 39 38 38 38 38 35 33 30 27
34 31 39 42 37 42 42 41 42 40 39 41 39 38 39 40 42 43 43 42 42 42 40 40 40 41 39 39 40 40 40 39 39 39 39 39 38 37 37 35 32 30 28 25
36 33 36 36 41 43 44 43 43 42 41 42 40 41 41 41 41 40 39 39 39 39 39 38 38 39 39 40 40 39 39 38 38 35 30 30 29 31 31 29 29 29 27 25
35 34 35 35 37 41 41 41 39 40 42 42 43 41 41 41 40 39 38 39 39 39 38 38 38 38 39 39 38 36 33 29 26 27 26 22 22 23 25 26 26 27 27 26
33 40 38 36 37 42 39 40 40 40 41 41 40 39 40 40 38 38 38 39 38 38 37 37 37 37 35 34 32 29 26 25 24 25 23 18 19 21 25 26 27 26 25 24
39 41 42 42 40 40 39 39 40 40 39 39 41 40 40 39 39 38 39 38 37 33 29 28 28 29 30 29 28 26 25 25 25 24 23 22 22 22 21 23 23 23 23 23
38 40 40 41 39 39 39 39 39 37 35 34 38 40 39 39 38 36 32 27 24 23 23 23 23 24 26 26 25 25 25 26 25 25 25 26 24 24 24 23 22 22 23 20
37 37 38 38 36 35 34 35 32 30 29 28 28 32 34 30 26 23 22 21 20 20 21 22 23 24 25 25 24 23 23 24 25 25 26 25 25 25 25 25 25 24 23 20
35 36 36 34 33 32 31 30 29 28 27 26 24 24 22 21 20 20 21 22 22 23 24 24 25 26 27 27 27 26 26 26 25 25 25 24 24 24 23 22 21 21 21 19
33 32 33 33 31 29 28 28 27 26 25 24 23 23 21 21 20 20 20 20 20 21 22 23 23 25 26 25 24 24 24 24 23 23 23 23 22 21 21 21 20 20 18 17
32 30 30 30 27 26 25 25 24 24 23 23 23 22 20 19 19 19 19 20 19 18 20 21 22 23 23 23 23 23 22 22 21 21 20 19 19 19 19 19 18 17 17 16
26 25 25 25 25 24 23 23 23 23 23 22 21 19 20 19 19 19 19 18 16 15 17 20 22 21 21 21 21 20 20 19 20 19 19 17 17 17 16 16 16 15 15 15
24 24 24 23 24 24 23 23 23 22 23 21 20 18 17 17 18 17 17 16 17 18 19 19 18 18 19 20 20 19 18 17 17 17 16 15 15 14 14 14 13 12 10 10
22 22 22 22 22 23 23 23 22 20 21 20 18 18 17 18 19 18 15 13 16 17 17 16 16 16 17 18 17 16 16 15 14 13 12 11 10 9 8 8 7 6 5 4
22 21 21 21 20 20 21 21 21 20 19 19 19 19 17 17 18 17 16 14 15 15 14 12 14 14 16 15 13 12 12 11 10 10 8 7 6 6 5 3 1 0 -0 -7
23 23 22 21 20 20 20 19 19 18 18 17 17 16 16 16 16 14 11 15 13 11 10 11 12 12 11 10 9 7 6 4 2 1 0 -1 -1 0 0 2 1 -1 -8 -7
20 20 19 19 19 18 17 18 17 18 17 17 16 16 14 12 13 15 12 11 9 8 8 8 7 6 3 3 2 0 -1 0 2 -3 -3 -6 -13 -15 -15 -18 -14 -13 -9 -7
16 16 15 15 14 15 14 16 16 15 15 14 14 15 15 15 12 11 11 12 12 9 8 5 3 -1 -2 -4 -6 -8 -10 -11 -11 -13 -14 -17 -19 -20 -21 -19 -14 -11 -12 -13
14 13 12 11 11 11 12 11 11 13 11 9 9 9 8 10 10 9 7 4 5 2 0 -3 -4 -6 -8 -8 -10 -12 -15 -12 -9 -8 -17 -19 -21 -19 -19 -18 -19 -20 -21 -23
10 10 10 10 10 8 7 7 7 5 2 2 3 3 3 2 4 5 -4 -5 -6 -7 -11 -14 -12 -10 -11 -15 -15 -15 -15 -15 -13 -14 -20 -23 -22 -20 -20 -22 -25 -26 -27 -25